Location: Unspecified
(42.9300°N, 71.1866°W)
Time: 22:47:47
(UTC-04:00)

Genesis I - Visible Passes

Search period start: 20 April 2014 00:00
Search period end: 30 April 2014 00:00
Orbit: 514 x 556 km, 64.5° (Epoch: 20 April)

Date Brightness Start Highest point End Pass type
(mag) Time Alt. Az. Time Alt. Az. Time Alt. Az.
20 Apr 6.2 01:45:03 10° NNW 01:45:45 14° NNW 01:45:45 14° NNW visible
21 Apr 6.2 01:35:27 10° NNW 01:36:01 13° NNW 01:36:01 13° NNW visible
22 Apr 6.3 01:25:51 10° NNW 01:26:20 13° NNW 01:26:20 13° NNW visible
22 Apr 6.4 23:40:40 10° NNE 23:41:20 10° NNE 23:41:20 10° NNE visible
23 Apr 6.3 01:16:14 10° NNW 01:16:42 13° NNW 01:16:42 13° NNW visible
23 Apr 6.2 23:30:25 10° NNE 23:31:43 12° NNE 23:31:43 12° NNE visible
24 Apr 6.3 01:06:37 10° NNW 01:07:05 13° NNW 01:07:05 13° NNW visible
24 Apr 6.1 23:20:26 10° N 23:22:08 13° NNE 23:22:08 13° NNE visible
25 Apr 6.2 00:56:59 10° NNW 00:57:29 13° NNW 00:57:29 13° NNW visible
25 Apr 5.9 23:10:32 10° N 23:12:33 14° NNE 23:12:33 14° NNE visible
26 Apr 6.2 00:47:21 10° NW 00:47:55 14° NW 00:47:55 14° NW visible
26 Apr 5.8 23:00:40 10° N 23:02:59 16° NE 23:02:59 16° NE visible
27 Apr 6.2 00:37:43 10° NW 00:38:21 14° NW 00:38:21 14° NW visible
27 Apr 5.6 22:50:49 10° N 22:53:26 18° NE 22:53:26 18° NE visible
28 Apr 6.1 00:28:04 10° NW 00:28:48 15° NW 00:28:48 15° NW visible
28 Apr 5.4 22:40:59 10° N 22:43:53 20° NE 22:43:53 20° NE visible
29 Apr 6.0 00:18:25 10° NW 00:19:15 15° NW 00:19:15 15° NW visible
29 Apr 5.2 22:31:09 10° N 22:34:21 22° NE 22:34:21 22° NE visible
